Location: PSU-Greenbush Astrophysical Observatory
(37.5140°N, 94.9880°W)
Time: 17:31:44
(UTC-05:00)

BEESAT - Pass Details

Date: 01 March 2020
Orbit: 700 x 709 km, 98.6° (Epoch: 05 April)

Event Time Altitude Azimuth Distance (km) Brightness Sun altitude
Rises 03:55:24 0° 117° (ESE) 3,087 ? -35.1°
Reaches altitude 10° 03:58:48 10° 91° (E) 2,172 ? -34.5°
Maximum altitude 04:01:01 13° 63° (ENE) 1,952 ? -34.0°
Drops below altitude 10° 04:03:15 10° 35° (NE) 2,175 ? -33.6°
Sets 04:06:38 0° 9° (N) 3,097 ? -33.0°
